AMX643 KLAX-MMMX

Flight info

Callsign AMX643
Flight time 3h 8m
Altitude 37000
Route PNDAH2 TCATE DCT PPE UJ7 HMO UT18 NABAS UT49 DGO UJ5 ZCL UT130 DARAN DARAN3B
Aircraft B738/M-SDE2E3FGHIRWXY/LB1

Departure

Time 2026-04-21 01:34
Airport Los Angeles International Airport (KLAX)

Arrival

Time 2026-04-21 04:42
Airport Mexico City Benito Juárez International Airport (MMMX)
Time Latitude Longitude Altitude Speed Heading
2026-04-21 01:05 33.94129 -118.40262 110 ft 0 kts 72°
2026-04-21 01:19 33.94128 -118.40268 125 ft 2 kts 72°
2026-04-21 01:19 33.94123 -118.40287 122 ft 2 kts 72°
2026-04-21 01:20 33.94118 -118.40306 121 ft 2 kts 73°
2026-04-21 01:20 33.94114 -118.40325 121 ft 2 kts 100°
2026-04-21 01:20 33.94115 -118.40331 121 ft 0 kts 112°
2026-04-21 01:23 33.94113 -118.40326 125 ft 1 kts 116°
2026-04-21 01:23 33.94108 -118.40322 122 ft 2 kts 150°
2026-04-21 01:24 33.94106 -118.40321 122 ft 0 kts 159°
2026-04-21 01:25 33.94095 -118.40320 121 ft 5 kts 175°
2026-04-21 01:25 33.94033 -118.40309 123 ft 10 kts 172°
2026-04-21 01:25 33.93966 -118.40299 123 ft 7 kts 172°
2026-04-21 01:25 33.93947 -118.40297 123 ft 3 kts 173°
2026-04-21 01:26 33.93893 -118.40286 123 ft 11 kts 160°
2026-04-21 01:26 33.93859 -118.40220 123 ft 9 kts 90°
2026-04-21 01:26 33.93864 -118.40151 125 ft 8 kts 85°
2026-04-21 01:26 33.93871 -118.40093 123 ft 6 kts 81°
2026-04-21 01:27 33.93876 -118.40042 125 ft 6 kts 83°
2026-04-21 01:27 33.93882 -118.39982 120 ft 9 kts 80°
2026-04-21 01:27 33.93892 -118.39893 125 ft 13 kts 86°
2026-04-21 01:27 33.93902 -118.39769 125 ft 17 kts 82°
2026-04-21 01:28 33.93917 -118.39624 125 ft 18 kts 82°
2026-04-21 01:28 33.93932 -118.39495 125 ft 17 kts 82°
2026-04-21 01:28 33.93948 -118.39356 125 ft 16 kts 82°
2026-04-21 01:28 33.93960 -118.39255 125 ft 12 kts 82°
2026-04-21 01:29 33.93967 -118.39189 123 ft 11 kts 82°
2026-04-21 01:29 33.93984 -118.39050 123 ft 14 kts 80°
2026-04-21 01:29 33.93996 -118.38931 125 ft 14 kts 84°
2026-04-21 01:29 33.94002 -118.38840 125 ft 3 kts 85°
2026-04-21 01:30 33.94004 -118.38822 125 ft 4 kts 84°
2026-04-21 01:30 33.94005 -118.38807 125 ft 1 kts 83°
2026-04-21 01:30 33.94010 -118.38762 125 ft 10 kts 81°
2026-04-21 01:30 33.94025 -118.38642 123 ft 18 kts 83°
2026-04-21 01:31 33.94039 -118.38492 125 ft 14 kts 85°
2026-04-21 01:31 33.94047 -118.38405 125 ft 6 kts 87°
2026-04-21 01:31 33.94042 -118.38365 125 ft 4 kts 108°
2026-04-21 01:31 33.94027 -118.38348 119 ft 2 kts 154°
2026-04-21 01:32 33.94025 -118.38347 124 ft 0 kts 160°
2026-04-21 01:32 33.94019 -118.38343 123 ft 0 kts 154°
2026-04-21 01:32 33.94012 -118.38340 124 ft 2 kts 162°
2026-04-21 01:32 33.93965 -118.38366 122 ft 13 kts 230°
2026-04-21 01:33 33.93944 -118.38451 123 ft 0 kts 269°
2026-04-21 01:33 33.93940 -118.38494 125 ft 12 kts 261°
2026-04-21 01:33 33.93898 -118.38894 121 ft 91 kts 264°
2026-04-21 01:33 33.93784 -118.39984 173 ft 162 kts 262°
2026-04-21 01:34 33.93639 -118.41434 794 ft 183 kts 262°
2026-04-21 01:34 33.93493 -118.43045 1703 ft 196 kts 263°
2026-04-21 01:34 33.93330 -118.44677 2602 ft 204 kts 262°
2026-04-21 01:34 33.92881 -118.46361 2941 ft 223 kts 239°
2026-04-21 01:35 33.91938 -118.47921 3419 ft 235 kts 231°
2026-04-21 01:35 33.90886 -118.49470 4064 ft 240 kts 229°
2026-04-21 01:35 33.89765 -118.51035 4560 ft 257 kts 229°
2026-04-21 01:35 33.88591 -118.52692 5326 ft 262 kts 228°
2026-04-21 01:36 33.87415 -118.54387 6195 ft 264 kts 225°
2026-04-21 01:36 33.85904 -118.55620 6933 ft 266 kts 198°
2026-04-21 01:36 33.84090 -118.55944 7791 ft 266 kts 176°
2026-04-21 01:36 33.82279 -118.55554 8566 ft 270 kts 168°
2026-04-21 01:37 33.80446 -118.55005 9388 ft 272 kts 167°
2026-04-21 01:37 33.78602 -118.54452 10200 ft 274 kts 168°
2026-04-21 01:37 33.76691 -118.53901 10532 ft 295 kts 168°
2026-04-21 01:37 33.74614 -118.53322 10702 ft 318 kts 168°
2026-04-21 01:38 33.72381 -118.52695 10900 ft 339 kts 166°
2026-04-21 01:38 33.70210 -118.51464 11354 ft 354 kts 146°
2026-04-21 01:38 33.68497 -118.49290 11987 ft 365 kts 126°
2026-04-21 01:38 33.67290 -118.46580 12648 ft 372 kts 119°
2026-04-21 01:39 33.66188 -118.43745 12968 ft 376 kts 118°
2026-04-21 01:39 33.65087 -118.40895 12995 ft 377 kts 119°
2026-04-21 01:39 33.63961 -118.38083 12999 ft 377 kts 120°
2026-04-21 01:39 33.62781 -118.35249 12996 ft 376 kts 121°
2026-04-21 01:40 33.61585 -118.32459 12997 ft 376 kts 121°
2026-04-21 01:40 33.60371 -118.29681 12998 ft 376 kts 121°
2026-04-21 01:40 33.59147 -118.26913 12994 ft 376 kts 122°
2026-04-21 01:40 33.57904 -118.24140 13184 ft 380 kts 122°
2026-04-21 01:41 33.56645 -118.21331 13789 ft 384 kts 121°
2026-04-21 01:41 33.55421 -118.18527 14425 ft 385 kts 121°
2026-04-21 01:41 33.54188 -118.15619 15063 ft 387 kts 121°
2026-04-21 01:41 33.52981 -118.12719 15635 ft 391 kts 121°
2026-04-21 01:42 33.51751 -118.09852 16189 ft 393 kts 122°
2026-04-21 01:42 33.50470 -118.06936 16753 ft 396 kts 122°
2026-04-21 01:42 33.49193 -118.03992 17320 ft 400 kts 122°
2026-04-21 01:42 33.47933 -118.01009 17878 ft 403 kts 121°
2026-04-21 01:43 33.46455 -117.98195 18357 ft 397 kts 138°
2026-04-21 01:43 33.44359 -117.96016 18849 ft 395 kts 143°
2026-04-21 01:43 33.42314 -117.93846 19318 ft 399 kts 142°
2026-04-21 01:43 33.40257 -117.91596 19761 ft 402 kts 142°
2026-04-21 01:44 33.38183 -117.89337 20241 ft 405 kts 142°
2026-04-21 01:44 33.36072 -117.87071 20696 ft 407 kts 142°
2026-04-21 01:44 33.33940 -117.84813 21152 ft 410 kts 143°
2026-04-21 01:44 33.31786 -117.82558 21599 ft 413 kts 143°
2026-04-21 01:45 33.29614 -117.80297 22040 ft 416 kts 143°
2026-04-21 01:45 33.27421 -117.78023 22464 ft 418 kts 143°
2026-04-21 01:45 33.25208 -117.75750 22887 ft 421 kts 143°
2026-04-21 01:45 33.22965 -117.73460 23305 ft 424 kts 143°
2026-04-21 01:46 33.20760 -117.71172 23679 ft 427 kts 142°
2026-04-21 01:46 33.18534 -117.68807 24031 ft 430 kts 141°
2026-04-21 01:46 33.16465 -117.66202 24364 ft 438 kts 130°
2026-04-21 01:46 33.15011 -117.62975 24688 ft 448 kts 114°
2026-04-21 01:47 33.14001 -117.59434 25056 ft 451 kts 111°
2026-04-21 01:47 33.13088 -117.55843 25371 ft 454 kts 110°
2026-04-21 01:47 33.12168 -117.52222 25666 ft 457 kts 110°
2026-04-21 01:47 33.11207 -117.48599 25966 ft 459 kts 111°
2026-04-21 01:48 33.10204 -117.44994 26278 ft 460 kts 112°
2026-04-21 01:48 33.09157 -117.41367 26583 ft 462 kts 112°
2026-04-21 01:48 33.08086 -117.37741 26882 ft 464 kts 112°
2026-04-21 01:48 33.07003 -117.34116 27175 ft 466 kts 113°
2026-04-21 01:49 33.05904 -117.30459 27457 ft 468 kts 113°
2026-04-21 01:49 33.04815 -117.26842 27721 ft 470 kts 112°
2026-04-21 01:49 33.03707 -117.23162 27984 ft 473 kts 112°
2026-04-21 01:49 33.02596 -117.19469 28257 ft 475 kts 112°
2026-04-21 01:50 33.01481 -117.15761 28505 ft 476 kts 112°
2026-04-21 01:50 33.00360 -117.12036 28765 ft 478 kts 112°
2026-04-21 01:50 32.99233 -117.08296 28999 ft 480 kts 112°
2026-04-21 01:50 32.98101 -117.04538 29262 ft 481 kts 112°
2026-04-21 01:51 32.96969 -117.00789 29666 ft 480 kts 112°
2026-04-21 01:51 32.95842 -116.97062 30096 ft 477 kts 112°
2026-04-21 01:51 32.94717 -116.93344 30411 ft 477 kts 112°
2026-04-21 01:51 32.93593 -116.89626 30694 ft 477 kts 112°
2026-04-21 01:52 32.92470 -116.85910 30985 ft 477 kts 112°
2026-04-21 01:52 32.90230 -116.78499 31575 ft 475 kts 113°
2026-04-21 01:52 32.89105 -116.74790 31848 ft 476 kts 113°
2026-04-21 01:53 32.87979 -116.71092 32126 ft 476 kts 113°
2026-04-21 01:53 32.86847 -116.67393 32424 ft 475 kts 113°
2026-04-21 01:53 32.85711 -116.63699 32692 ft 475 kts 113°
2026-04-21 01:53 32.84566 -116.60015 32961 ft 474 kts 114°
2026-04-21 01:54 32.83411 -116.56355 33217 ft 475 kts 114°
2026-04-21 01:54 32.82260 -116.52653 33459 ft 475 kts 113°
2026-04-21 01:54 32.81149 -116.48964 33718 ft 475 kts 113°
2026-04-21 01:54 32.79881 -116.45354 33968 ft 472 kts 118°
2026-04-21 01:55 32.78479 -116.41815 34202 ft 471 kts 120°
2026-04-21 01:55 32.77026 -116.38329 34450 ft 470 kts 120°
2026-04-21 01:55 32.75544 -116.34873 34705 ft 468 kts 121°
2026-04-21 01:55 32.74051 -116.31444 34957 ft 467 kts 121°
2026-04-21 01:56 32.72555 -116.28025 35185 ft 466 kts 121°
2026-04-21 01:56 32.71062 -116.24615 35410 ft 465 kts 121°
2026-04-21 01:56 32.69571 -116.21204 35658 ft 464 kts 121°
2026-04-21 01:56 32.68108 -116.17844 35918 ft 463 kts 121°
2026-04-21 01:57 32.66617 -116.14418 36142 ft 462 kts 121°
2026-04-21 01:57 32.65140 -116.11022 36327 ft 462 kts 122°
2026-04-21 01:57 32.63686 -116.07683 36491 ft 462 kts 122°
2026-04-21 01:57 32.62213 -116.04298 36715 ft 461 kts 122°
2026-04-21 01:58 32.60743 -116.00921 36933 ft 459 kts 122°
2026-04-21 01:58 32.57792 -115.94174 36966 ft 461 kts 122°
2026-04-21 01:59 32.54826 -115.87436 36951 ft 460 kts 122°
2026-04-21 01:59 32.51860 -115.80727 36937 ft 459 kts 122°
2026-04-21 02:00 32.48892 -115.74026 36940 ft 458 kts 122°
2026-04-21 02:00 32.45929 -115.67343 36916 ft 458 kts 122°
2026-04-21 02:01 32.42985 -115.60710 36920 ft 458 kts 122°
2026-04-21 02:01 32.40040 -115.54074 36926 ft 459 kts 122°
2026-04-21 02:02 32.37035 -115.47335 36910 ft 460 kts 122°
2026-04-21 02:02 32.34036 -115.40623 36890 ft 461 kts 122°
2026-04-21 02:03 32.31040 -115.33913 36912 ft 461 kts 122°
2026-04-21 02:03 32.28051 -115.27246 36908 ft 462 kts 122°
2026-04-21 02:04 32.25028 -115.20531 36909 ft 463 kts 122°
2026-04-21 02:04 32.21999 -115.13812 36912 ft 464 kts 122°
2026-04-21 02:05 32.18955 -115.07063 36913 ft 465 kts 122°
2026-04-21 02:05 32.15916 -115.00329 36909 ft 466 kts 122°
2026-04-21 02:06 32.12867 -114.93578 36911 ft 466 kts 122°
2026-04-21 02:06 32.09808 -114.86828 36911 ft 466 kts 122°
2026-04-21 02:07 32.06763 -114.80122 36911 ft 467 kts 122°
2026-04-21 02:07 32.03693 -114.73371 36914 ft 467 kts 122°
2026-04-21 02:08 32.00620 -114.66622 36913 ft 467 kts 122°
2026-04-21 02:08 31.97542 -114.59874 36913 ft 467 kts 122°
2026-04-21 02:09 31.94478 -114.53170 36914 ft 467 kts 122°
2026-04-21 02:09 31.91394 -114.46433 36913 ft 468 kts 122°
2026-04-21 02:10 31.88813 -114.40807 36910 ft 468 kts 122°
2026-04-21 02:10 31.85213 -114.32969 36922 ft 468 kts 123°
2026-04-21 02:11 31.82103 -114.26209 36920 ft 469 kts 123°
2026-04-21 02:11 31.79509 -114.20588 36918 ft 469 kts 123°
2026-04-21 02:12 31.76385 -114.13832 36919 ft 470 kts 123°
2026-04-21 02:12 31.73279 -114.07135 36929 ft 470 kts 123°
2026-04-21 02:13 31.70143 -114.00379 36933 ft 471 kts 123°
2026-04-21 02:13 31.67004 -113.93626 36933 ft 471 kts 123°
2026-04-21 02:14 31.63853 -113.86871 36934 ft 472 kts 123°
2026-04-21 02:14 31.60695 -113.80119 36938 ft 472 kts 123°
2026-04-21 02:15 31.57522 -113.73362 36942 ft 472 kts 123°
2026-04-21 02:15 31.54343 -113.66615 36941 ft 473 kts 123°
2026-04-21 02:16 31.51148 -113.59860 36946 ft 474 kts 123°
2026-04-21 02:16 31.47945 -113.53119 36947 ft 474 kts 123°
2026-04-21 02:17 31.44712 -113.46368 36948 ft 475 kts 124°
2026-04-21 02:17 31.41433 -113.39658 36948 ft 475 kts 124°
2026-04-21 02:18 31.38252 -113.32930 36949 ft 476 kts 124°
2026-04-21 02:18 31.34283 -113.27182 36937 ft 461 kts 146°
2026-04-21 02:19 31.29462 -113.22217 36939 ft 463 kts 142°
2026-04-21 02:19 31.24728 -113.17098 36944 ft 464 kts 143°
2026-04-21 02:20 31.19929 -113.12062 36947 ft 464 kts 144°
2026-04-21 02:20 31.15074 -113.07095 36954 ft 464 kts 144°
2026-04-21 02:21 31.10196 -113.02150 36945 ft 464 kts 144°
2026-04-21 02:21 31.05304 -112.97205 36949 ft 465 kts 144°
2026-04-21 02:22 31.00442 -112.92293 36947 ft 465 kts 144°
2026-04-21 02:22 30.95538 -112.87337 36949 ft 466 kts 144°
2026-04-21 02:23 30.90639 -112.82390 36943 ft 466 kts 144°
2026-04-21 02:23 30.85736 -112.77447 36949 ft 466 kts 144°
2026-04-21 02:24 30.80834 -112.72511 36945 ft 466 kts 144°
2026-04-21 02:24 30.75918 -112.67566 36946 ft 467 kts 144°
2026-04-21 02:25 30.71006 -112.62629 36946 ft 467 kts 144°
2026-04-21 02:25 30.66081 -112.57692 36952 ft 467 kts 144°
2026-04-21 02:26 30.61184 -112.52792 36942 ft 468 kts 144°
2026-04-21 02:26 30.56243 -112.47851 36943 ft 468 kts 144°
2026-04-21 02:27 30.51301 -112.42917 36949 ft 468 kts 145°
2026-04-21 02:27 30.46351 -112.37985 36946 ft 469 kts 145°
2026-04-21 02:28 30.41397 -112.33057 36948 ft 469 kts 145°
2026-04-21 02:28 30.36464 -112.28159 36947 ft 469 kts 145°
2026-04-21 02:29 30.31504 -112.23247 36952 ft 469 kts 145°
2026-04-21 02:29 30.26534 -112.18334 36954 ft 470 kts 145°
2026-04-21 02:30 30.21559 -112.13423 36957 ft 470 kts 146°
2026-04-21 02:30 30.16575 -112.08524 36960 ft 470 kts 146°
2026-04-21 02:31 30.11572 -112.03625 36965 ft 471 kts 146°
2026-04-21 02:31 30.06598 -111.98775 36957 ft 471 kts 146°
2026-04-21 02:32 30.01579 -111.93903 36956 ft 471 kts 146°
2026-04-21 02:32 29.96543 -111.89050 36960 ft 471 kts 146°
2026-04-21 02:33 29.91479 -111.84273 36961 ft 470 kts 147°
2026-04-21 02:33 29.86457 -111.79414 36962 ft 472 kts 144°
2026-04-21 02:34 29.81593 -111.74324 36972 ft 472 kts 144°
2026-04-21 02:34 29.76711 -111.69340 36973 ft 471 kts 145°
2026-04-21 02:35 29.71728 -111.64455 36962 ft 470 kts 146°
2026-04-21 02:35 29.66714 -111.59620 36947 ft 470 kts 146°
2026-04-21 02:36 29.61693 -111.54801 36953 ft 470 kts 146°
2026-04-21 02:36 29.56667 -111.49987 36946 ft 471 kts 146°
2026-04-21 02:37 29.51620 -111.45185 36951 ft 471 kts 146°
2026-04-21 02:37 29.46551 -111.40467 36954 ft 472 kts 147°
2026-04-21 02:38 29.41508 -111.35609 36948 ft 475 kts 144°
2026-04-21 02:38 29.36542 -111.30503 36944 ft 476 kts 144°
2026-04-21 02:39 29.31536 -111.25540 36950 ft 476 kts 146°
2026-04-21 02:39 29.26486 -111.20719 36962 ft 476 kts 146°
2026-04-21 02:40 29.21367 -111.15907 36972 ft 476 kts 147°
2026-04-21 02:40 29.16219 -111.11155 36981 ft 476 kts 148°
2026-04-21 02:41 29.11096 -111.06323 36976 ft 479 kts 145°
2026-04-21 02:41 29.06151 -111.01210 36985 ft 484 kts 139°
2026-04-21 02:42 29.01703 -110.95371 36979 ft 487 kts 136°
2026-04-21 02:42 28.97200 -110.89616 36964 ft 485 kts 139°
2026-04-21 02:43 28.92567 -110.84080 36967 ft 484 kts 140°
2026-04-21 02:43 28.87842 -110.78590 36961 ft 484 kts 141°
2026-04-21 02:44 28.83091 -110.73121 36958 ft 485 kts 141°
2026-04-21 02:44 28.78306 -110.67712 36960 ft 485 kts 141°
2026-04-21 02:45 28.73652 -110.62108 36966 ft 488 kts 138°
2026-04-21 02:45 28.69085 -110.56367 36972 ft 488 kts 139°
2026-04-21 02:46 28.64413 -110.50748 36967 ft 488 kts 141°
2026-04-21 02:46 28.59674 -110.45226 36967 ft 487 kts 141°
2026-04-21 02:47 28.54909 -110.39733 36964 ft 488 kts 141°
2026-04-21 02:47 28.50175 -110.34289 36964 ft 488 kts 141°
2026-04-21 02:48 28.45398 -110.28799 36974 ft 487 kts 141°
2026-04-21 02:48 28.40626 -110.23328 36975 ft 488 kts 141°
2026-04-21 02:49 28.35837 -110.17860 36975 ft 488 kts 142°
2026-04-21 02:49 28.31028 -110.12406 36972 ft 488 kts 142°
2026-04-21 02:50 28.26206 -110.06986 36970 ft 488 kts 142°
2026-04-21 02:50 28.21336 -110.01635 36975 ft 488 kts 143°
2026-04-21 02:51 28.16517 -109.96166 36971 ft 491 kts 139°
2026-04-21 02:51 28.11955 -109.90437 36975 ft 493 kts 138°
2026-04-21 02:52 28.07319 -109.84713 36973 ft 492 kts 140°
2026-04-21 02:52 28.03387 -109.80048 36977 ft 492 kts 141°
2026-04-21 02:53 27.98598 -109.74480 36978 ft 493 kts 141°
2026-04-21 02:53 27.93800 -109.68936 36976 ft 493 kts 141°
2026-04-21 02:54 27.88992 -109.63379 36991 ft 494 kts 141°
2026-04-21 02:54 27.84176 -109.57822 36988 ft 495 kts 141°
2026-04-21 02:55 27.79378 -109.52306 36999 ft 496 kts 141°
2026-04-21 02:55 27.74518 -109.46756 36991 ft 496 kts 141°
2026-04-21 02:56 27.69646 -109.41221 37005 ft 496 kts 141°
2026-04-21 02:56 27.62275 -109.33009 36994 ft 496 kts 141°
2026-04-21 02:57 27.57478 -109.27371 37002 ft 499 kts 138°
2026-04-21 02:57 27.52790 -109.21610 36995 ft 498 kts 139°
2026-04-21 02:58 27.48046 -109.16009 36992 ft 497 kts 140°
2026-04-21 02:58 27.43192 -109.10461 36995 ft 496 kts 141°
2026-04-21 02:59 27.38324 -109.04959 37004 ft 496 kts 141°
2026-04-21 02:59 27.33460 -108.99466 37012 ft 495 kts 141°
2026-04-21 03:00 27.28591 -108.93965 37012 ft 495 kts 141°
2026-04-21 03:00 27.23725 -108.88470 37017 ft 495 kts 141°
2026-04-21 03:01 27.18861 -108.82986 37024 ft 495 kts 141°
2026-04-21 03:01 27.13979 -108.77495 37031 ft 496 kts 141°
2026-04-21 03:02 27.09126 -108.72047 37022 ft 497 kts 141°
2026-04-21 03:02 27.04226 -108.66567 37029 ft 497 kts 141°
2026-04-21 03:03 26.99311 -108.61083 37019 ft 498 kts 141°
2026-04-21 03:03 26.94402 -108.55606 37019 ft 498 kts 141°
2026-04-21 03:04 26.89490 -108.50135 37015 ft 497 kts 141°
2026-04-21 03:04 26.84574 -108.44673 37018 ft 497 kts 141°
2026-04-21 03:05 26.79662 -108.39224 37020 ft 497 kts 141°
2026-04-21 03:05 26.74741 -108.33800 37028 ft 496 kts 141°
2026-04-21 03:06 26.69791 -108.28397 37032 ft 496 kts 141°
2026-04-21 03:06 26.64804 -108.23058 37033 ft 497 kts 142°
2026-04-21 03:07 26.59874 -108.17607 37036 ft 499 kts 139°
2026-04-21 03:07 26.55453 -108.11639 37063 ft 505 kts 129°
2026-04-21 03:08 26.51585 -108.05076 37062 ft 507 kts 127°
2026-04-21 03:08 26.47675 -107.98533 37052 ft 505 kts 129°
2026-04-21 03:09 26.43656 -107.92132 37069 ft 502 kts 130°
2026-04-21 03:09 26.39583 -107.85818 37075 ft 502 kts 130°
2026-04-21 03:10 26.35491 -107.79518 37073 ft 502 kts 130°
2026-04-21 03:10 26.31391 -107.73206 37105 ft 500 kts 130°
2026-04-21 03:11 26.27313 -107.66916 37078 ft 501 kts 130°
2026-04-21 03:11 26.23216 -107.60606 37048 ft 503 kts 130°
2026-04-21 03:12 26.19160 -107.54371 37082 ft 504 kts 130°
2026-04-21 03:12 26.14984 -107.47980 37077 ft 506 kts 130°
2026-04-21 03:13 26.10831 -107.41646 37083 ft 506 kts 130°
2026-04-21 03:13 26.06672 -107.35307 37081 ft 507 kts 130°
2026-04-21 03:14 26.02540 -107.29001 37086 ft 508 kts 130°
2026-04-21 03:14 25.98374 -107.22654 37095 ft 507 kts 130°
2026-04-21 03:15 25.94181 -107.16357 37102 ft 506 kts 131°
2026-04-21 03:15 25.89958 -107.10111 37108 ft 505 kts 130°
2026-04-21 03:16 25.85845 -107.03737 37119 ft 506 kts 128°
2026-04-21 03:16 25.81849 -106.97321 37123 ft 504 kts 129°
2026-04-21 03:17 25.77798 -106.90993 37150 ft 502 kts 130°
2026-04-21 03:17 25.73723 -106.84765 37144 ft 501 kts 130°
2026-04-21 03:18 25.69621 -106.78546 37136 ft 499 kts 130°
2026-04-21 03:18 25.65521 -106.72338 37157 ft 498 kts 130°
2026-04-21 03:19 25.61394 -106.66103 37143 ft 504 kts 130°
2026-04-21 03:19 25.57250 -106.59835 37150 ft 505 kts 130°
2026-04-21 03:20 25.53073 -106.53582 37141 ft 504 kts 130°
2026-04-21 03:20 25.48914 -106.47420 37148 ft 502 kts 130°
2026-04-21 03:21 25.44715 -106.41243 37141 ft 501 kts 130°
2026-04-21 03:21 25.40629 -106.34986 37152 ft 500 kts 129°
2026-04-21 03:22 25.36586 -106.28752 37149 ft 498 kts 130°
2026-04-21 03:22 25.32460 -106.22610 37159 ft 496 kts 130°
2026-04-21 03:23 25.28302 -106.16529 37159 ft 495 kts 131°
2026-04-21 03:23 25.24161 -106.10489 37149 ft 495 kts 131°
2026-04-21 03:24 25.19995 -106.04429 37157 ft 496 kts 131°
2026-04-21 03:24 25.15802 -105.98359 37169 ft 496 kts 131°
2026-04-21 03:25 25.11575 -105.92316 37163 ft 497 kts 132°
2026-04-21 03:25 25.07380 -105.86279 37163 ft 499 kts 130°
2026-04-21 03:26 25.03287 -105.80059 37161 ft 501 kts 129°
2026-04-21 03:26 24.99174 -105.73839 37144 ft 502 kts 130°
2026-04-21 03:27 24.94984 -105.67676 37136 ft 501 kts 131°
2026-04-21 03:27 24.90795 -105.61599 37144 ft 500 kts 131°
2026-04-21 03:28 24.86568 -105.55489 37138 ft 500 kts 131°
2026-04-21 03:28 24.82356 -105.49398 37133 ft 500 kts 131°
2026-04-21 03:29 24.78136 -105.43319 37105 ft 498 kts 131°
2026-04-21 03:29 24.73919 -105.37291 37133 ft 497 kts 132°
2026-04-21 03:30 24.69662 -105.31280 37161 ft 497 kts 132°
2026-04-21 03:30 24.65408 -105.25250 37130 ft 500 kts 131°
2026-04-21 03:31 24.61292 -105.19060 37132 ft 502 kts 130°
2026-04-21 03:31 24.57162 -105.12864 37141 ft 502 kts 131°
2026-04-21 03:32 24.52972 -105.06771 37099 ft 504 kts 131°
2026-04-21 03:32 24.48713 -105.00666 37111 ft 503 kts 132°
2026-04-21 03:33 24.44446 -104.94570 37109 ft 502 kts 132°
2026-04-21 03:33 24.40194 -104.88500 37102 ft 501 kts 132°
2026-04-21 03:34 24.35938 -104.82444 37087 ft 500 kts 132°
2026-04-21 03:34 24.31691 -104.76410 37082 ft 498 kts 132°
2026-04-21 03:35 24.27458 -104.70421 37074 ft 496 kts 132°
2026-04-21 03:35 24.23246 -104.64498 37073 ft 495 kts 133°
2026-04-21 03:36 24.19681 -104.59539 37065 ft 494 kts 133°
2026-04-21 03:36 24.15442 -104.53670 37056 ft 494 kts 132°
2026-04-21 03:37 24.11350 -104.47564 37057 ft 495 kts 129°
2026-04-21 03:37 24.07420 -104.41444 37057 ft 495 kts 130°
2026-04-21 03:38 24.03355 -104.35301 37056 ft 495 kts 130°
2026-04-21 03:38 23.99244 -104.29233 37054 ft 495 kts 131°
2026-04-21 03:39 23.95121 -104.23193 37049 ft 495 kts 131°
2026-04-21 03:39 23.90995 -104.17155 37059 ft 496 kts 131°
2026-04-21 03:40 23.86887 -104.11152 37056 ft 496 kts 131°
2026-04-21 03:40 23.82749 -104.05129 37061 ft 495 kts 131°
2026-04-21 03:41 23.78609 -103.99137 37070 ft 494 kts 131°
2026-04-21 03:41 23.74428 -103.93178 37071 ft 493 kts 132°
2026-04-21 03:42 23.70313 -103.87187 37075 ft 493 kts 130°
2026-04-21 03:42 23.66224 -103.81178 37072 ft 492 kts 131°
2026-04-21 03:43 23.62187 -103.75148 37071 ft 491 kts 130°
2026-04-21 03:43 23.58158 -103.69240 37078 ft 488 kts 132°
2026-04-21 03:44 23.54061 -103.63435 37080 ft 487 kts 131°
2026-04-21 03:44 23.50042 -103.57417 37082 ft 487 kts 129°
2026-04-21 03:45 23.46099 -103.51415 37087 ft 486 kts 130°
2026-04-21 03:45 23.42081 -103.45487 37079 ft 486 kts 131°
2026-04-21 03:46 23.38023 -103.39605 37081 ft 486 kts 131°
2026-04-21 03:46 23.33944 -103.33733 37079 ft 486 kts 131°
2026-04-21 03:47 23.29853 -103.27866 37082 ft 487 kts 131°
2026-04-21 03:47 23.25770 -103.22035 37073 ft 487 kts 131°
2026-04-21 03:48 23.21642 -103.16177 37073 ft 488 kts 131°
2026-04-21 03:48 23.17484 -103.10354 37079 ft 488 kts 131°
2026-04-21 03:49 23.13427 -103.04430 37075 ft 489 kts 130°
2026-04-21 03:49 23.09441 -102.98456 37101 ft 488 kts 130°
2026-04-21 03:50 23.05382 -102.92551 37152 ft 487 kts 131°
2026-04-21 03:50 23.01270 -102.86710 37190 ft 486 kts 131°
2026-04-21 03:51 22.97157 -102.80944 37260 ft 486 kts 132°
2026-04-21 03:51 22.93000 -102.75152 37296 ft 486 kts 131°
2026-04-21 03:52 22.88786 -102.69443 37285 ft 481 kts 141°
2026-04-21 03:52 22.86240 -102.67125 37287 ft 473 kts 152°
2026-04-21 03:52 22.83490 -102.65182 37309 ft 472 kts 151°
2026-04-21 03:53 22.78082 -102.61089 37259 ft 474 kts 150°
2026-04-21 03:53 22.72698 -102.57039 37219 ft 474 kts 150°
2026-04-21 03:54 22.67210 -102.53041 37167 ft 474 kts 151°
2026-04-21 03:54 22.61712 -102.49100 37123 ft 474 kts 151°
2026-04-21 03:55 22.56213 -102.45175 37116 ft 472 kts 151°
2026-04-21 03:55 22.50738 -102.41267 37121 ft 471 kts 151°
2026-04-21 03:56 22.45279 -102.37362 37130 ft 469 kts 151°
2026-04-21 03:56 22.39852 -102.33482 37132 ft 466 kts 151°
2026-04-21 03:57 22.34452 -102.29623 37134 ft 465 kts 152°
2026-04-21 03:57 22.29062 -102.25773 37132 ft 463 kts 151°
2026-04-21 03:58 22.23699 -102.21953 37142 ft 462 kts 152°
2026-04-21 03:58 22.18368 -102.18160 37141 ft 461 kts 152°
2026-04-21 03:59 22.13005 -102.14347 37143 ft 461 kts 152°
2026-04-21 04:00 22.04967 -102.08638 37149 ft 461 kts 152°
2026-04-21 04:00 21.99591 -102.04836 37143 ft 462 kts 152°
2026-04-21 04:01 21.94210 -102.01039 37157 ft 463 kts 152°
2026-04-21 04:01 21.88812 -101.97244 37161 ft 464 kts 152°
2026-04-21 04:02 21.83390 -101.93449 37164 ft 465 kts 152°
2026-04-21 04:02 21.77960 -101.89660 37164 ft 466 kts 152°
2026-04-21 04:03 21.72553 -101.85905 37166 ft 466 kts 152°
2026-04-21 04:03 21.67084 -101.82147 37168 ft 466 kts 152°
2026-04-21 04:04 21.61623 -101.78392 37175 ft 466 kts 151°
2026-04-21 04:04 21.56452 -101.74155 37181 ft 472 kts 139°
2026-04-21 04:05 21.52382 -101.68554 37186 ft 479 kts 126°
2026-04-21 04:05 21.48914 -101.62427 37182 ft 479 kts 124°
2026-04-21 04:06 21.45394 -101.56353 37189 ft 478 kts 126°
2026-04-21 04:06 21.41760 -101.50388 37192 ft 477 kts 127°
2026-04-21 04:07 21.38075 -101.44463 37189 ft 476 kts 127°
2026-04-21 04:07 21.34392 -101.38563 37191 ft 476 kts 127°
2026-04-21 04:07 21.32576 -101.35651 37083 ft 476 kts 127°
2026-04-21 04:08 21.30712 -101.32662 36894 ft 475 kts 127°
2026-04-21 04:08 21.28911 -101.29774 36700 ft 466 kts 127°
2026-04-21 04:08 21.27144 -101.26935 36470 ft 451 kts 127°
2026-04-21 04:08 21.25420 -101.24168 36281 ft 441 kts 127°
2026-04-21 04:09 21.23724 -101.21448 36074 ft 437 kts 127°
2026-04-21 04:09 21.22032 -101.18746 35908 ft 436 kts 127°
2026-04-21 04:09 21.20337 -101.16045 35718 ft 436 kts 127°
2026-04-21 04:09 21.18648 -101.13357 35544 ft 435 kts 127°
2026-04-21 04:10 21.16954 -101.10666 35365 ft 436 kts 127°
2026-04-21 04:10 21.15257 -101.07975 35190 ft 436 kts 127°
2026-04-21 04:10 21.13553 -101.05284 35017 ft 436 kts 127°
2026-04-21 04:10 21.11839 -101.02599 34845 ft 437 kts 127°
2026-04-21 04:11 21.10129 -100.99906 34641 ft 438 kts 127°
2026-04-21 04:11 21.08424 -100.97175 34425 ft 443 kts 126°
2026-04-21 04:11 21.06711 -100.94453 34178 ft 438 kts 128°
2026-04-21 04:11 21.04939 -100.91818 33916 ft 433 kts 129°
2026-04-21 04:12 21.03172 -100.89239 33652 ft 427 kts 129°
2026-04-21 04:12 21.01397 -100.86695 33405 ft 424 kts 130°
2026-04-21 04:12 20.99621 -100.84187 33174 ft 422 kts 130°
2026-04-21 04:12 20.97843 -100.81690 32937 ft 419 kts 130°
2026-04-21 04:13 20.96072 -100.79215 32717 ft 418 kts 130°
2026-04-21 04:13 20.94328 -100.76784 32502 ft 417 kts 130°
2026-04-21 04:13 20.92556 -100.74318 32274 ft 416 kts 130°
2026-04-21 04:13 20.90787 -100.71857 32056 ft 416 kts 130°
2026-04-21 04:14 20.89024 -100.69405 31845 ft 416 kts 130°
2026-04-21 04:14 20.87260 -100.66952 31621 ft 416 kts 130°
2026-04-21 04:14 20.85496 -100.64499 31404 ft 416 kts 130°
2026-04-21 04:14 20.83738 -100.62055 31194 ft 415 kts 130°
2026-04-21 04:15 20.81970 -100.59598 30991 ft 415 kts 130°
2026-04-21 04:15 20.80209 -100.57153 30786 ft 415 kts 130°
2026-04-21 04:15 20.78449 -100.54711 30568 ft 414 kts 130°
2026-04-21 04:15 20.76696 -100.52278 30369 ft 413 kts 130°
2026-04-21 04:16 20.74948 -100.49851 30199 ft 411 kts 130°
2026-04-21 04:16 20.73209 -100.47436 29976 ft 410 kts 130°
2026-04-21 04:16 20.72057 -100.45838 29845 ft 409 kts 130°
2026-04-21 04:16 20.69742 -100.42631 29573 ft 407 kts 130°
2026-04-21 04:17 20.68597 -100.41047 29434 ft 406 kts 130°
2026-04-21 04:17 20.66315 -100.37895 29165 ft 403 kts 130°
2026-04-21 04:17 20.64602 -100.35531 28963 ft 401 kts 130°
2026-04-21 04:17 20.62898 -100.33181 28752 ft 399 kts 130°
2026-04-21 04:18 20.61207 -100.30849 28548 ft 397 kts 130°
2026-04-21 04:18 20.60087 -100.29308 28412 ft 395 kts 130°
2026-04-21 04:18 20.58405 -100.26994 28199 ft 393 kts 130°
2026-04-21 04:18 20.56735 -100.24698 27976 ft 391 kts 130°
2026-04-21 04:19 20.55073 -100.22414 27748 ft 389 kts 130°
2026-04-21 04:19 20.53416 -100.20139 27526 ft 387 kts 130°
2026-04-21 04:19 20.51764 -100.17874 27294 ft 385 kts 130°
2026-04-21 04:19 20.50121 -100.15620 27053 ft 384 kts 130°
2026-04-21 04:20 20.48484 -100.13375 26811 ft 382 kts 130°
2026-04-21 04:20 20.46861 -100.11151 26567 ft 381 kts 129°
2026-04-21 04:20 20.45227 -100.08913 26326 ft 379 kts 130°
2026-04-21 04:20 20.43604 -100.06689 26085 ft 378 kts 130°
2026-04-21 04:21 20.41992 -100.04478 25842 ft 377 kts 130°
2026-04-21 04:21 20.40382 -100.02273 25607 ft 376 kts 130°
2026-04-21 04:21 20.38778 -100.00079 25371 ft 375 kts 129°
2026-04-21 04:21 20.37175 -99.97889 25138 ft 374 kts 129°
2026-04-21 04:22 20.35572 -99.95701 24910 ft 373 kts 129°
2026-04-21 04:22 20.33997 -99.93553 24688 ft 372 kts 129°
2026-04-21 04:22 20.32403 -99.91379 24481 ft 371 kts 129°
2026-04-21 04:22 20.30816 -99.89216 24286 ft 370 kts 129°
2026-04-21 04:23 20.29231 -99.87061 24085 ft 369 kts 129°
2026-04-21 04:23 20.27642 -99.84910 23888 ft 368 kts 129°
2026-04-21 04:23 20.26066 -99.82770 23688 ft 367 kts 129°
2026-04-21 04:23 20.24503 -99.80631 23450 ft 365 kts 129°
2026-04-21 04:24 20.22953 -99.78494 23215 ft 363 kts 129°
2026-04-21 04:24 20.21196 -99.76587 22964 ft 359 kts 147°
2026-04-21 04:24 20.18990 -99.75437 22730 ft 352 kts 167°
2026-04-21 04:24 20.16616 -99.74860 22537 ft 349 kts 170°
2026-04-21 04:25 20.14235 -99.74360 22302 ft 347 kts 171°
2026-04-21 04:25 20.11862 -99.73895 22073 ft 345 kts 171°
2026-04-21 04:25 20.09510 -99.73446 21845 ft 344 kts 172°
2026-04-21 04:25 20.07148 -99.72997 21623 ft 342 kts 171°
2026-04-21 04:26 20.04838 -99.72555 21406 ft 341 kts 171°
2026-04-21 04:26 20.02507 -99.72108 21189 ft 340 kts 171°
2026-04-21 04:26 20.00179 -99.71659 20878 ft 341 kts 171°
2026-04-21 04:26 19.97820 -99.71206 20416 ft 346 kts 171°
2026-04-21 04:27 19.95447 -99.70754 19990 ft 347 kts 171°
2026-04-21 04:27 19.93061 -99.70302 19556 ft 348 kts 171°
2026-04-21 04:27 19.90670 -99.69847 19121 ft 349 kts 170°
2026-04-21 04:27 19.88278 -99.69385 18705 ft 350 kts 170°
2026-04-21 04:28 19.85888 -99.68904 18259 ft 350 kts 165°
2026-04-21 04:28 19.83680 -99.67827 17754 ft 350 kts 143°
2026-04-21 04:28 19.81986 -99.65990 17297 ft 349 kts 126°
2026-04-21 04:28 19.80610 -99.63874 16837 ft 348 kts 123°
2026-04-21 04:29 19.79278 -99.61763 16381 ft 348 kts 124°
2026-04-21 04:29 19.77893 -99.59611 15911 ft 348 kts 124°
2026-04-21 04:29 19.76562 -99.57490 15455 ft 342 kts 122°
2026-04-21 04:29 19.75307 -99.55373 15007 ft 335 kts 121°
2026-04-21 04:30 19.74089 -99.53286 14560 ft 329 kts 121°
2026-04-21 04:30 19.72904 -99.51253 14329 ft 314 kts 121°
2026-04-21 04:30 19.71804 -99.49374 14160 ft 295 kts 121°
2026-04-21 04:30 19.70747 -99.47568 13904 ft 280 kts 121°
2026-04-21 04:31 19.69740 -99.45860 13630 ft 266 kts 122°
2026-04-21 04:31 19.68780 -99.44235 13350 ft 254 kts 122°
2026-04-21 04:31 19.67860 -99.42682 13084 ft 243 kts 122°
2026-04-21 04:31 19.66973 -99.41186 12814 ft 236 kts 121°
2026-04-21 04:32 19.66107 -99.39726 12504 ft 232 kts 121°
2026-04-21 04:32 19.65258 -99.38294 12203 ft 228 kts 121°
2026-04-21 04:32 19.64421 -99.36880 11926 ft 226 kts 121°
2026-04-21 04:32 19.63587 -99.35473 11639 ft 224 kts 121°
2026-04-21 04:33 19.62772 -99.34103 11380 ft 223 kts 121°
2026-04-21 04:33 19.61940 -99.32712 11117 ft 222 kts 121°
2026-04-21 04:33 19.61114 -99.31335 10853 ft 221 kts 121°
2026-04-21 04:33 19.60288 -99.29966 10591 ft 221 kts 121°
2026-04-21 04:34 19.59380 -99.28650 10320 ft 223 kts 139°
2026-04-21 04:34 19.58111 -99.27689 10090 ft 224 kts 144°
2026-04-21 04:34 19.56815 -99.26740 9816 ft 228 kts 143°
2026-04-21 04:34 19.55517 -99.25767 9551 ft 229 kts 143°
2026-04-21 04:35 19.54227 -99.24786 9342 ft 227 kts 143°
2026-04-21 04:35 19.52952 -99.23816 9107 ft 224 kts 149°
2026-04-21 04:35 19.51461 -99.23433 8957 ft 222 kts 179°
2026-04-21 04:35 19.49972 -99.23443 8889 ft 209 kts 179°
2026-04-21 04:36 19.48571 -99.23450 8842 ft 193 kts 179°
2026-04-21 04:36 19.47272 -99.23450 8819 ft 181 kts 178°
2026-04-21 04:36 19.46052 -99.23449 8849 ft 170 kts 178°
2026-04-21 04:36 19.44902 -99.23448 8812 ft 161 kts 178°
2026-04-21 04:37 19.43786 -99.23444 8817 ft 161 kts 177°
2026-04-21 04:37 19.42654 -99.23439 8827 ft 164 kts 178°
2026-04-21 04:37 19.41504 -99.23439 8826 ft 166 kts 177°
2026-04-21 04:37 19.40362 -99.23362 8806 ft 164 kts 165°
2026-04-21 04:38 19.39296 -99.22961 8814 ft 161 kts 150°
2026-04-21 04:38 19.38396 -99.22282 8806 ft 158 kts 135°
2026-04-21 04:38 19.37725 -99.21376 8811 ft 156 kts 118°
2026-04-21 04:38 19.37329 -99.20318 8837 ft 151 kts 103°
2026-04-21 04:39 19.37276 -99.19220 8817 ft 152 kts 77°
2026-04-21 04:39 19.37659 -99.18165 8848 ft 156 kts 68°
2026-04-21 04:39 19.38116 -99.17123 8871 ft 155 kts 66°
2026-04-21 04:39 19.38574 -99.16094 8875 ft 154 kts 64°
2026-04-21 04:40 19.39095 -99.15102 8886 ft 154 kts 61°
2026-04-21 04:40 19.39625 -99.14126 8941 ft 152 kts 63°
2026-04-21 04:40 19.40134 -99.13163 8888 ft 146 kts 60°
2026-04-21 04:40 19.40672 -99.12279 8739 ft 143 kts 59°
2026-04-21 04:41 19.41188 -99.11391 8453 ft 140 kts 60°
2026-04-21 04:41 19.41684 -99.10516 8027 ft 140 kts 60°
2026-04-21 04:41 19.42151 -99.09634 7719 ft 135 kts 61°
2026-04-21 04:41 19.42642 -99.08749 7510 ft 138 kts 64°
2026-04-21 04:42 19.43108 -99.07882 7305 ft 129 kts 64°
2026-04-21 04:42 19.43468 -99.07224 7301 ft 69 kts 62°
2026-04-21 04:42 19.43568 -99.07009 7301 ft 16 kts 91°
2026-04-21 04:42 19.43539 -99.06955 7302 ft 0 kts 130°
2026-04-21 04:43 19.43501 -99.06913 7302 ft 15 kts 137°
2026-04-21 04:44 19.43394 -99.06892 7302 ft 20 kts 216°
2026-04-21 04:44 19.43315 -99.07021 7302 ft 14 kts 239°
2026-04-21 04:44 19.43278 -99.07114 7302 ft 13 kts 260°
2026-04-21 04:44 19.43262 -99.07208 7302 ft 14 kts 258°
2026-04-21 04:45 19.43220 -99.07305 7302 ft 14 kts 235°
2026-04-21 04:45 19.43167 -99.07394 7302 ft 14 kts 237°
2026-04-21 04:45 19.43120 -99.07483 7302 ft 14 kts 239°
2026-04-21 04:45 19.43071 -99.07570 7302 ft 14 kts 239°
2026-04-21 04:46 19.43025 -99.07659 7302 ft 14 kts 237°
2026-04-21 04:46 19.42966 -99.07748 7302 ft 16 kts 230°
2026-04-21 04:46 19.42876 -99.07829 7302 ft 16 kts 213°
2026-04-21 04:46 19.42789 -99.07881 7302 ft 9 kts 195°
2026-04-21 04:47 19.42738 -99.07872 7302 ft 7 kts 165°
2026-04-21 04:47 19.42694 -99.07883 7302 ft 7 kts 217°
2026-04-21 04:47 19.42660 -99.07931 7302 ft 9 kts 236°
2026-04-21 04:47 19.42609 -99.07969 7302 ft 7 kts 178°
2026-04-21 04:48 19.42555 -99.07960 7302 ft 11 kts 200°
2026-04-21 04:48 19.42505 -99.08017 7302 ft 11 kts 237°
2026-04-21 04:48 19.42458 -99.08096 7302 ft 16 kts 244°
2026-04-21 04:48 19.42405 -99.08179 7302 ft 13 kts 220°
2026-04-21 04:49 19.42328 -99.08200 7302 ft 11 kts 183°
2026-04-21 04:49 19.42250 -99.08195 7302 ft 10 kts 169°
2026-04-21 04:49 19.42194 -99.08168 7302 ft 8 kts 137°
2026-04-21 04:49 19.42167 -99.08128 7302 ft 6 kts 116°
2026-04-21 04:50 19.42156 -99.08096 7302 ft 4 kts 90°
2026-04-21 04:50 19.42173 -99.08069 7302 ft 6 kts 41°
2026-04-21 04:50 19.42192 -99.08056 7302 ft 0 kts 29°